Weather observations for the past three days for
Boise Air Terminal
| Date | Time (mdt) | Wind (mph) | Vis. (mi.) | Weather | Sky Cond. | Temperature (ºF) | Relative Humidity | Wind Chill (°F) | Heat Index (°F) | Pressure | Precipitation (in) | ||||||
|---|---|---|---|---|---|---|---|---|---|---|---|---|---|---|---|---|---|
| Air | Dwpt | 6 hour | altimeter (in) | sea level (mb) | 1 hr | 3 hr | 6 hr | ||||||||||
| Max. | Min. | ||||||||||||||||
| 04 | 18:53 | NW 16 | 10.00 | Fair | CLR | 80.1 | 30.9 | 17% | 78 | 29.63 | 1001.3 | ||||||
| 04 | 17:53 | NW 15 G 29 | 10.00 | Fair | CLR | 81 | 30.9 | 81 | 69.1 | 16% | 79 | 29.65 | 1001.7 | ||||
| 04 | 16:53 | NW 16 G 24 | 10.00 | Fair | CLR | 80.1 | 37 | 21% | 79 | 29.66 | 1002.4 | ||||||
| 04 | 15:53 | NW 9 | 10.00 | Fair | CLR | 78.1 | 37.9 | 24% | 78 | 29.69 | 1003.4 | ||||||
| 04 | 14:53 | NW 9 G 21 | 10.00 | Fair | CLR | 77 | 41 | 28% | 78 | 29.72 | 1004.2 | ||||||
| 04 | 13:53 | NW 9 G 16 | 10.00 | Fair | CLR | 75 | 37.9 | 26% | 77 | 29.74 | 1004.9 | ||||||
| 04 | 12:53 | NW 10 | 10.00 | Fair | CLR | 73 | 39 | 29% | 29.76 | 1005.7 | |||||||
| 04 | 11:53 | NW 8 | 10.00 | Fair | CLR | 69.1 | 41 | 69.1 | 48.9 | 36% | 29.78 | 1006.2 | |||||
| 04 | 10:53 | W 6 | 10.00 | Fair | CLR | 64.9 | 41 | 42% | 29.78 | 1006.5 | |||||||
| 04 | 09:53 | W 6 | 10.00 | Fair | CLR | 62.1 | 39.9 | 44% | 29.79 | 1006.8 | |||||||
| 04 | 08:53 | Calm | 10.00 | Fair | CLR | 55.9 | 41 | 57% | 29.79 | 1006.8 | |||||||
| 04 | 07:53 | S 3 | 10.00 | Fair | CLR | 52 | 39.9 | 64% | 29.78 | 1006.5 | |||||||
| 04 | 06:53 | Calm | 10.00 | Fair | CLR | 50 | 37.9 | 63% | 29.77 | 1006.0 | |||||||
| 04 | 05:53 | Calm | 10.00 | Fair | CLR | 50 | 37.9 | 64.9 | 50 | 63% | 29.76 | 1005.7 | |||||
| 04 | 04:53 | S 5 | 10.00 | Fair | CLR | 50 | 39 | 66% | 49 | 29.76 | 1005.9 | ||||||
| 04 | 03:53 | S 5 | 10.00 | Fair | CLR | 52 | 39 | 61% | 29.76 | 1005.5 | |||||||
| 04 | 02:53 | Calm | 10.00 | Fair | CLR | 54 | 39.9 | 59% | 29.76 | 1005.6 | |||||||
| 04 | 01:53 | S 5 | 10.00 | Fair | CLR | 55 | 39.9 | 57% | 29.76 | 1005.8 | |||||||
| 04 | 00:53 | S 5 | 10.00 | Fair | CLR | 57 | 39 | 51% | 29.76 | 1005.6 | |||||||
| 03 | 23:53 | Calm | 10.00 | Fair | CLR | 64.9 | 37 | 81 | 63 | 36% | 29.75 | 1005.4 | |||||
| 03 | 22:53 | W 3 | 10.00 | Fair | CLR | 66.9 | 35.1 | 31% | 29.76 | 1005.4 | |||||||
| 03 | 21:53 | NW 8 | 10.00 | Fair | CLR | 66.9 | 37 | 33% | 29.75 | 1005.3 | |||||||
| 03 | 20:53 | NW 8 | 10.00 | Fair | CLR | 71.1 | 36 | 28% | 29.74 | 1005.1 | |||||||
| 03 | 19:53 | NW 15 | 10.00 | Fair | CLR | 78.1 | 33.1 | 19% | 77 | 29.74 | 1005.1 | ||||||
| 03 | 18:53 | NW 14 | 10.00 | Fair | CLR | 80.1 | 33.1 | 18% | 79 | 29.76 | 1005.7 | ||||||
| 03 | 17:53 | NW 12 G 22 | 10.00 | Fair | CLR | 81 | 36 | 81 | 69.1 | 20% | 79 | 29.78 | 1006.3 | ||||
| 03 | 16:53 | NW 12 G 22 | 10.00 | Fair | CLR | 80.1 | 37 | 21% | 79 | 29.8 | 1007.1 | ||||||
| 03 | 15:53 | W 13 G 21 | 10.00 | Fair | CLR | 80.1 | 36 | 20% | 79 | 29.84 | 1008.3 | ||||||
| 03 | 14:53 | W 9 | 10.00 | Fair | CLR | 78.1 | 39.9 | 26% | 78 | 29.86 | 1009.1 | ||||||
| 03 | 13:53 | NW 7 | 10.00 | Fair | CLR | 75 | 39.9 | 28% | 77 | 29.89 | 1010.0 | ||||||
| 03 | 12:53 | Calm | 10.00 | Fair | CLR | 72 | 37.9 | 29% | 29.91 | 1011.0 | |||||||
| 03 | 11:53 | Vrbl 3 | 10.00 | Fair | CLR | 69.1 | 39.9 | 69.1 | 48.9 | 35% | 29.93 | 1011.8 | |||||
| 03 | 10:53 | SW 6 | 10.00 | Fair | CLR | 66 | 39.9 | 39% | 29.95 | 1012.2 | |||||||
| 03 | 09:53 | SE 5 | 10.00 | Fair | CLR | 64 | 37 | 37% | 29.95 | 1012.4 | |||||||
| 03 | 08:53 | Calm | 10.00 | Fair | CLR | 57.9 | 37 | 46% | 29.96 | 1012.7 | |||||||
| 03 | 07:53 | S 3 | 10.00 | Fair | CLR | 51.1 | 36 | 56% | 29.96 | 1012.8 | |||||||
| 03 | 06:53 | SE 3 | 10.00 | Fair | CLR | 50 | 34 | 54% | 29.94 | 1012.1 | |||||||
| 03 | 05:53 | SE 5 | 10.00 | Fair | CLR | 50 | 34 | 61 | 50 | 54% | 49 | 29.94 | 1011.9 | ||||
| 03 | 04:53 | S 5 | 10.00 | Fair | CLR | 51.1 | 35.1 | 54% | 29.94 | 1012.0 | |||||||
| 03 | 03:53 | SE 7 | 10.00 | Fair | CLR | 52 | 35.1 | 53% | 29.94 | 1012.0 | |||||||
| 03 | 02:53 | S 3 | 10.00 | Fair | CLR | 54 | 35.1 | 49% | 29.94 | 1011.8 | |||||||
| 03 | 01:53 | SE 7 | 10.00 | Fair | CLR | 55.9 | 35.1 | 46% | 29.95 | 1012.0 | |||||||
| 03 | 00:53 | SE 5 | 10.00 | Fair | CLR | 59 | 34 | 39% | 29.94 | 1012.0 | |||||||
| 02 | 23:53 | S 7 | 10.00 | Fair | CLR | 59 | 35.1 | 79 | 59 | 41% | 29.93 | 1011.8 | |||||
| 02 | 22:53 | SE 3 | 10.00 | Fair | CLR | 63 | 37.9 | 40% | 29.93 | 1011.5 | |||||||
| 02 | 21:53 | Calm | 10.00 | Fair | CLR | 66.9 | 37 | 33% | 29.91 | 1011.1 | |||||||
| 02 | 20:53 | N 6 | 10.00 | Fair | CLR | 70 | 36 | 29% | 29.89 | 1010.5 | |||||||
| 02 | 19:53 | N 8 | 10.00 | Fair | CLR | 73 | 36 | 26% | 29.89 | 1010.4 | |||||||
| 02 | 18:53 | N 6 | 10.00 | Fair | CLR | 77 | 25 | 14% | 76 | 29.9 | 1010.5 | ||||||
| 02 | 17:53 | Calm | 10.00 | Fair | CLR | 78.1 | 19 | 80.1 | 69.1 | 11% | 77 | 29.9 | 1010.6 | ||||
| 02 | 16:53 | Calm | 10.00 | Fair | CLR | 79 | 21.9 | 12% | 77 | 29.92 | 1011.1 | ||||||
| 02 | 15:53 | E 9 | 10.00 | Fair | CLR | 78.1 | 25 | 14% | 77 | 29.94 | 1011.9 | ||||||
| 02 | 14:53 | Calm | 10.00 | Fair | CLR | 77 | 25 | 14% | 76 | 29.96 | 1012.6 | ||||||
| 02 | 13:53 | E 9 | 10.00 | Fair | CLR | 77 | 26.1 | 15% | 76 | 29.98 | 1013.2 | ||||||
| 02 | 12:53 | Vrbl 3 | 10.00 | Fair | CLR | 72 | 36 | 27% | 30.01 | 1014.4 | |||||||
| 02 | 11:53 | E 3 | 10.00 | Fair | CLR | 69.1 | 36 | 69.1 | 52 | 30% | 30.03 | 1015.4 | |||||
| 02 | 10:53 | Calm | 10.00 | Fair | CLR | 64 | 36 | 35% | 30.04 | 1015.7 | |||||||
| 02 | 09:53 | NW 6 | 10.00 | Fair | CLR | 57.9 | 36 | 44% | 30.05 | 1016.3 | |||||||
| 02 | 08:53 | NE 5 | 10.00 | Fair | CLR | 53.1 | 37 | 55% | 30.04 | 1015.7 | |||||||
| 02 | 07:53 | SE 8 | 10.00 | Fair | CLR | 52 | 34 | 50% | 30.03 | 1015.3 | |||||||
| 02 | 06:53 | SE 10 | 10.00 | Fair | CLR | 53.1 | 32 | 45% | 30.01 | 1014.5 | |||||||
| 02 | 05:53 | E 9 | 10.00 | Fair | CLR | 53.1 | 32 | 57 | 53.1 | 45% | 30.01 | 1014.6 | |||||
| 02 | 04:53 | SE 9 | 10.00 | Fair | CLR | 53.1 | 32 | 45% | 30.02 | 1014.8 | |||||||
| 02 | 03:53 | SE 12 | 10.00 | Fair | CLR | 55 | 32 | 42% | 30.02 | 1014.8 | |||||||
| 02 | 02:53 | E 9 | 10.00 | Fair | CLR | 55.9 | 32 | 40% | 30.02 | 1014.9 | |||||||
| 02 | 01:53 | SE 10 | 10.00 | Fair | CLR | 55.9 | 33.1 | 42% | 30.03 | 1015.3 | |||||||
| 02 | 00:53 | SE 10 | 10.00 | Fair | CLR | 55.9 | 33.1 | 42% | 30.03 | 1015.4 | |||||||
| 01 | 23:53 | E 7 | 10.00 | Fair | CLR | 55 | 33.1 | 73.9 | 55 | 44% | 30.03 | 1015.6 | |||||
| 01 | 22:53 | E 10 | 10.00 | Fair | CLR | 59 | 32 | 36% | 30.04 | 1015.5 | |||||||
| 01 | 21:53 | Calm | 10.00 | Fair | CLR | 59 | 32 | 36% | 30.03 | 1015.7 | |||||||
| 01 | 20:53 | SE 3 | 10.00 | Fair | CLR | 69.1 | 25 | 19% | 30.01 | 1014.7 | |||||||
| 01 | 19:53 | S 5 | 10.00 | Fair | CLR | 71.1 | 23 | 16% | 30.02 | 1015.0 | |||||||
| Date | Time (mdt) | Wind (mph) | Vis. (mi.) | Weather | Sky Cond. | Air | Dwpt | Max. | Min. | Relative Humidity | Wind Chill (°F) | Heat Index (°F) | altimeter (in) | sea level (mb) | 1 hr | 3 hr | 6 hr |
| 6 hour | |||||||||||||||||
| Temperature (ºF) | Pressure | Precipitation (in) | |||||||||||||||